[[{"header":{"parameterUnit":"m.s-1","parameterCategory":1,"la1":30.2991,"la2":30.254,"lo1":-89.0895,"lo2":-89.0444,"dy":0.0017,"dx":0.0017,"nx":28,"ny":28,"refTime":"2026-02-15T09:00:00:Z","depth":0,"parameterNumber":2,"parameterNumberName":"U-component_of_WINDS"},"data":[0,0,0,0,0,0,0,0,0,0,0,0,0,0,0,0,0,0,0,0,0,0,0,0,0,0,0,0,0,0,0,0,0,0,0,0,0,0,0,0,0,0,0,0,0,0,0,0,0,0,0,0,0,0,0,0,0,0,3.7294,3.7295,0,3.7427,3.7429,3.743,3.7464,3.7464,3.7463,3.7462,3.7599,3.7603,3.7607,0,0,0,0,0,0,0,0,0,0,0,0,0,3.707,3.7074,3.7293,3.7295,3.7297,3.7427,3.7429,3.7431,3.7465,3.7464,3.7463,3.7462,3.7597,3.7602,3.7608,0,0,0,0,0,0,0,0,0,0,0,0,0,3.7182,3.7075,3.7293,3.7329,3.7334,3.7427,3.7429,3.7431,3.7465,3.7464,3.7462,3.7461,3.7595,3.7602,3.7608,3.7674,0,0,3.7629,3.7631,0,0,0,0,0,0,0,0,3.7175,3.719,3.7322,3.7327,3.7332,3.7428,3.74,3.7513,3.7465,3.7415,3.7462,3.7461,3.7543,3.7554,3.7581,3.7681,3.7686,3.7629,3.7633,3.7636,3.7638,0,0,0,0,0,0,0,3.7167,3.7184,3.7346,3.7324,3.733,3.734,3.7354,3.7422,3.7484,3.7419,3.7422,3.7438,3.7545,3.7575,3.7585,3.7688,3.7629,3.7635,3.7639,3.7642,3.7853,3.7854,0,0,0,0,0,0,3.7153,3.7178,3.7342,3.735,3.7249,3.7345,3.7361,3.7398,3.7484,3.7495,3.7439,3.7439,3.7564,3.7577,3.759,3.7675,3.7636,3.7642,3.7646,3.7851,3.7853,3.7855,0,0,0,0,0,0,3.7148,3.7168,3.7337,3.7265,3.7287,3.735,3.7392,3.7402,3.7431,3.7498,3.751,3.7457,3.7564,3.7581,3.7654,3.768,3.7645,3.7651,3.7849,3.7851,3.7854,3.7844,0,0,0,0,0,0,3.7142,3.7166,3.719,3.7265,3.7291,3.7397,3.7393,3.7405,3.7443,3.7444,3.7519,3.753,3.7564,3.7644,3.766,3.7688,3.7656,3.7847,3.785,3.7853,3.7842,3.7845,3.7848,0,0,0,0,0,3.7134,3.7181,3.7191,3.7211,3.7323,3.7399,3.7414,3.7452,3.7445,3.7471,3.7515,3.7527,3.7675,3.7651,3.767,3.77,3.7845,3.7849,3.7853,3.784,3.7845,3.7848,0,0,0,0,0,0,3.7107,3.7192,3.7204,3.7277,3.7331,3.7404,3.7438,3.7455,3.7512,3.7511,3.7556,3.7573,3.7644,3.768,3.7652,3.7771,3.776,3.7768,3.7744,3.7749,3.7752,3.7742,3.7662,0,0,0,0,0,3.711,3.7164,3.7235,3.7293,3.7319,3.7374,3.7409,3.7434,3.7492,3.7514,3.7563,3.7618,3.7678,3.7715,3.7773,3.7848,3.7866,3.7878,3.7882,3.7884,3.789,3.7935,3.7942,3.7867,3.7867,3.7867,0,0,3.7116,3.7169,3.72,3.7289,3.7334,3.739,3.7393,3.7451,3.7494,3.7523,3.7596,3.7634,3.7699,3.7774,3.781,3.7806,3.7915,3.7889,3.789,3.7895,3.794,3.7947,3.7953,3.7869,3.7869,3.7868,0,0,3.7155,3.72,3.7255,3.73,3.7368,3.7405,3.7418,3.7491,3.7517,3.7591,3.7615,3.7667,3.7767,3.7814,3.785,3.7912,3.7927,3.793,3.7946,3.799,3.7996,3.8001,3.8025,3.8033,3.7935,3.7935,3.7935,0,3.7154,3.7239,3.728,3.7339,3.7378,3.7409,3.7465,3.7507,3.7591,3.7618,3.7613,3.7742,3.7788,3.7875,3.7891,3.7919,3.7937,3.7921,3.7992,3.7998,3.8003,3.8027,3.8035,3.7935,3.7935,3.7935,3.7935,0,3.7235,3.7294,3.733,3.7411,3.7455,3.7512,3.7563,3.7603,3.7625,3.7663,3.774,3.7797,3.7868,3.7891,3.7913,3.7983,3.7979,3.7982,3.7973,3.801,3.8033,3.8042,3.7935,3.7935,3.7935,3.7935,0,0,3.7259,3.7365,3.7377,3.7416,3.7495,3.7542,3.7602,3.7672,3.7706,3.7764,3.7816,3.7902,3.7907,3.7949,3.7977,3.8015,3.8063,3.8014,3.8016,3.8022,3.8147,3.8144,3.8153,3.8074,3.8076,3.8077,3.8142,0,3.731,3.7417,3.7458,3.7546,3.7602,3.7634,3.7687,3.7742,3.7779,3.7834,3.7876,3.7937,3.7937,3.7964,3.8003,3.8049,3.8089,3.8045,3.8124,3.8127,3.8107,3.8165,3.8162,3.8219,3.8151,3.8152,3.8153,0,3.7382,3.7442,3.7536,3.7611,3.7636,3.7682,3.7752,3.7803,3.7867,3.7893,3.7941,3.7968,3.8034,3.8021,3.8113,3.8082,3.8118,3.8146,3.8149,3.8158,3.8142,3.8176,3.8239,3.8248,3.8167,3.8166,3.8165,0,3.7392,3.7496,3.7567,3.7598,3.7687,3.772,3.7758,3.7821,3.7862,3.7924,3.7951,3.8019,3.8056,3.8109,3.8154,3.814,3.8244,3.8234,3.8268,3.8267,3.8287,3.8285,3.8357,3.8309,3.8309,3.8309,3.8309,0,3.7445,3.7501,3.7573,3.7616,3.7682,3.7729,3.7793,3.7834,3.789,3.7943,3.7975,3.8024,3.808,3.8138,3.8174,3.8246,3.8263,3.8286,3.8295,3.8283,3.8281,3.8307,3.8305,3.8311,3.8311,3.831,3.831,0,3.7466,3.7516,3.7596,3.7674,3.7696,3.7741,3.7809,3.7853,3.7894,3.7961,3.7979,3.8043,3.8112,3.8163,3.8252,3.8277,3.8355,3.8363,3.8333,3.8338,3.8369,3.8366,3.8461,3.8477,3.8417,3.8418,3.8418,0,3.7496,3.7541,3.7625,3.7664,3.7702,3.7763,3.7805,3.7855,3.7898,3.7977,3.8012,3.8084,3.8144,3.8254,3.8309,3.8378,3.8389,3.8418,3.84,3.8388,3.8392,3.8389,3.8394,3.842,3.8421,3.8421,3.8421,0,3.7545,3.7569,3.7629,3.7698,3.7749,3.7806,3.7863,3.7893,3.7953,3.8,3.8072,3.8119,3.8212,3.8283,3.8359,3.84,3.8422,3.8427,3.8439,3.8427,3.8409,3.8421,3.8341,3.8424,3.8424,3.8424,3.8423,3.8423,3.7574,3.7616,3.7682,3.7749,3.7798,3.7852,3.7898,3.7946,3.8006,3.8086,3.8112,3.8186,3.8253,3.8357,3.84,3.846,3.8459,3.8476,3.848,3.8484,3.8484,3.8399,3.8474,3.8474,3.8474,3.8474,3.8474,0,3.7625,3.7671,3.7731,3.7812,3.7865,3.7881,3.7947,3.799,3.8056,3.8116,3.8175,3.8259,3.833,3.8392,3.8466,3.8502,3.8514,3.852,3.8518,3.8528,3.8479,3.8462,3.851,3.851,3.851,3.851,3.851,3.851,3.7659,3.7732,3.7764,3.7862,3.7908,3.7981,3.8018,3.8068,3.8117,3.821,3.8269,3.8309,3.8371,3.845,3.8516,3.8533,3.8559,3.8563,3.8582,3.8535,3.8531,3.8527,3.8511,3.8568,3.8568,3.8626,3.8626,3.8627]},{"header":{"parameterUnit":"m.s-1","parameterCategory":1,"la1":30.2991,"la2":30.254,"lo1":-89.0895,"lo2":-89.0444,"dy":0.0017,"dx":0.0017,"nx":28,"ny":28,"refTime":"2026-02-15T09:00:00:Z","depth":0,"parameterNumber":3,"parameterNumberName":"V-component_of_WINDS"},"data":[0,0,0,0,0,0,0,0,0,0,0,0,0,0,0,0,0,0,0,0,0,0,0,0,0,0,0,0,0,0,0,0,0,0,0,0,0,0,0,0,0,0,0,0,0,0,0,0,0,0,0,0,0,0,0,0,0,0,-7.0286,-7.0288,0,-7.0397,-7.0399,-7.04,-7.039,-7.0388,-7.0387,-7.0385,-7.0495,-7.05,-7.0504,0,0,0,0,0,0,0,0,0,0,0,0,0,-7.0065,-7.0069,-7.0286,-7.0288,-7.0289,-7.0397,-7.0399,-7.04,-7.039,-7.0388,-7.0386,-7.0384,-7.0494,-7.0499,-7.0505,0,0,0,0,0,0,0,0,0,0,0,0,0,-7.0167,-7.007,-7.0286,-7.0297,-7.03,-7.0397,-7.0399,-7.0401,-7.0391,-7.0388,-7.0386,-7.0383,-7.0492,-7.0499,-7.0505,-7.0598,0,0,-7.0526,-7.0529,0,0,0,0,0,0,0,0,-7.0161,-7.0175,-7.0294,-7.0297,-7.0299,-7.0377,-7.0361,-7.0467,-7.0391,-7.0356,-7.0385,-7.0382,-7.0458,-7.0467,-7.0494,-7.0603,-7.0607,-7.0527,-7.0531,-7.0534,-7.0535,0,0,0,0,0,0,0,-7.0154,-7.017,-7.033,-7.0296,-7.0299,-7.0297,-7.0308,-7.0381,-7.042,-7.0359,-7.0359,-7.0372,-7.0459,-7.0487,-7.0496,-7.0609,-7.0526,-7.0532,-7.0537,-7.0539,-7.0802,-7.0805,0,0,0,0,0,0,-7.0145,-7.0164,-7.0327,-7.0334,-7.0223,-7.0303,-7.0316,-7.0355,-7.0419,-7.0426,-7.0374,-7.0371,-7.0477,-7.0488,-7.05,-7.0613,-7.0533,-7.054,-7.0544,-7.0799,-7.0803,-7.0806,0,0,0,0,0,0,-7.014,-7.0159,-7.0322,-7.0249,-7.027,-7.0309,-7.0353,-7.0358,-7.0387,-7.043,-7.0437,-7.0396,-7.0475,-7.049,-7.0574,-7.0617,-7.0543,-7.0549,-7.0796,-7.08,-7.0804,-7.084,0,0,0,0,0,0,-7.0134,-7.0158,-7.0193,-7.025,-7.0274,-7.0395,-7.0356,-7.0362,-7.0399,-7.0396,-7.0453,-7.046,-7.0474,-7.0564,-7.0581,-7.0625,-7.0554,-7.0792,-7.0798,-7.0803,-7.0835,-7.0845,-7.0854,0,0,0,0,0,-7.0126,-7.0197,-7.0195,-7.0214,-7.0319,-7.0397,-7.0411,-7.0427,-7.0402,-7.0438,-7.0467,-7.0458,-7.061,-7.0573,-7.0592,-7.0638,-7.0789,-7.0796,-7.0803,-7.0831,-7.0843,-7.0854,0,0,0,0,0,0,-7.0142,-7.0205,-7.0203,-7.0295,-7.0341,-7.0396,-7.0441,-7.0439,-7.0493,-7.0488,-7.0505,-7.0518,-7.0603,-7.0629,-7.0586,-7.0732,-7.0696,-7.0707,-7.0712,-7.0724,-7.0733,-7.0724,-7.056,0,0,0,0,0,-7.0157,-7.0217,-7.0268,-7.0344,-7.0368,-7.0401,-7.0436,-7.0445,-7.0493,-7.0512,-7.0546,-7.0593,-7.0651,-7.0689,-7.0745,-7.084,-7.0853,-7.0882,-7.0891,-7.0898,-7.0907,-7.096,-7.0974,-7.0828,-7.0828,-7.0828,0,0,-7.0188,-7.0229,-7.0265,-7.0349,-7.0386,-7.0447,-7.0417,-7.0482,-7.0527,-7.0521,-7.0603,-7.0631,-7.0683,-7.0774,-7.0815,-7.0798,-7.0951,-7.0907,-7.0912,-7.0917,-7.0969,-7.0982,-7.0995,-7.0832,-7.0831,-7.0831,0,0,-7.0274,-7.0311,-7.038,-7.0419,-7.0476,-7.0498,-7.0515,-7.057,-7.0589,-7.0672,-7.0669,-7.0723,-7.0823,-7.0862,-7.0894,-7.1,-7.0993,-7.1017,-7.1065,-7.1117,-7.1129,-7.1139,-7.1177,-7.119,-7.1026,-7.1026,-7.1026,0,-7.0304,-7.0396,-7.0415,-7.0482,-7.0519,-7.0519,-7.0589,-7.0625,-7.0697,-7.0723,-7.0704,-7.0831,-7.0867,-7.0967,-7.0993,-7.1019,-7.1039,-7.101,-7.1126,-7.1136,-7.1146,-7.1182,-7.1197,-7.1029,-7.1028,-7.1028,-7.1028,0,-7.0431,-7.0495,-7.0544,-7.0616,-7.0659,-7.0726,-7.0756,-7.0797,-7.0804,-7.0828,-7.0913,-7.0957,-7.1023,-7.1047,-7.1053,-7.1149,-7.1137,-7.1122,-7.1086,-7.1162,-7.1197,-7.1211,-7.1032,-7.1031,-7.1031,-7.103,0,0,-7.0528,-7.0612,-7.0629,-7.0663,-7.0728,-7.0778,-7.0846,-7.0913,-7.0948,-7.0999,-7.1057,-7.1143,-7.113,-7.1168,-7.1178,-7.1224,-7.1306,-7.1204,-7.1205,-7.1221,-7.1415,-7.1426,-7.1442,-7.1304,-7.1306,-7.1309,-7.1411,0,-7.062,-7.0743,-7.0764,-7.0871,-7.0931,-7.0934,-7.0994,-7.104,-7.1066,-7.112,-7.1148,-7.121,-7.1188,-7.121,-7.1256,-7.1287,-7.1345,-7.128,-7.1357,-7.136,-7.1343,-7.146,-7.1471,-7.1565,-7.1425,-7.1427,-7.1429,0,-7.0744,-7.0801,-7.0914,-7.0973,-7.0999,-7.1053,-7.1117,-7.1169,-7.1222,-7.1238,-7.1281,-7.1288,-7.136,-7.1322,-7.1422,-7.1376,-7.141,-7.143,-7.1434,-7.1441,-7.1398,-7.1469,-7.1595,-7.1609,-7.145,-7.1448,-7.1447,0,-7.0804,-7.0908,-7.099,-7.1019,-7.1089,-7.1127,-7.1159,-7.121,-7.1249,-7.1305,-7.133,-7.1393,-7.1427,-7.1476,-7.15,-7.147,-7.1598,-7.1562,-7.1612,-7.1612,-7.1638,-7.1635,-7.177,-7.1661,-7.1661,-7.166,-7.166,0,-7.0905,-7.0974,-7.1018,-7.1068,-7.1147,-7.1171,-7.1248,-7.1278,-7.1324,-7.138,-7.1387,-7.1439,-7.1467,-7.1525,-7.1543,-7.1624,-7.1639,-7.1653,-7.1657,-7.1652,-7.165,-7.1673,-7.1667,-7.1664,-7.1663,-7.1663,-7.1662,0,-7.0983,-7.1016,-7.1105,-7.1167,-7.1184,-7.1239,-7.1291,-7.134,-7.1367,-7.1438,-7.1456,-7.1498,-7.1566,-7.1595,-7.1677,-7.169,-7.1782,-7.1781,-7.1764,-7.1765,-7.1814,-7.1809,-7.1968,-7.199,-7.1866,-7.1867,-7.1868,0,-7.1045,-7.1099,-7.1167,-7.1206,-7.1239,-7.1301,-7.1342,-7.1369,-7.1411,-7.1478,-7.1519,-7.1588,-7.1644,-7.1752,-7.1789,-7.1853,-7.1854,-7.1905,-7.1863,-7.1857,-7.1854,-7.1851,-7.1856,-7.1912,-7.1913,-7.1914,-7.1915,0,-7.1151,-7.1166,-7.1225,-7.1291,-7.134,-7.1393,-7.1445,-7.1476,-7.1511,-7.1558,-7.1629,-7.1673,-7.1759,-7.1827,-7.1894,-7.1925,-7.1926,-7.1929,-7.1944,-7.1938,-7.1926,-7.1934,-7.1784,-7.1924,-7.1923,-7.1923,-7.1922,-7.1922,-7.1223,-7.1272,-7.1328,-7.1395,-7.1437,-7.1486,-7.1536,-7.157,-7.163,-7.1703,-7.1715,-7.1791,-7.1845,-7.1935,-7.197,-7.2029,-7.2016,-7.2038,-7.2043,-7.2048,-7.2051,-7.1918,-7.2042,-7.2041,-7.2041,-7.2041,-7.2041,0,-7.133,-7.1367,-7.1428,-7.1502,-7.1554,-7.1553,-7.1611,-7.1655,-7.1722,-7.1773,-7.1829,-7.1911,-7.1978,-7.2022,-7.2089,-7.2128,-7.2131,-7.2145,-7.2142,-7.215,-7.2059,-7.2039,-7.2142,-7.2142,-7.2142,-7.2142,-7.2142,-7.2142,-7.1391,-7.1474,-7.1496,-7.16,-7.1637,-7.1712,-7.1745,-7.1791,-7.1832,-7.1924,-7.198,-7.2009,-7.2058,-7.2129,-7.2191,-7.2202,-7.2227,-7.2242,-7.2252,-7.2166,-7.2156,-7.2145,-7.2127,-7.2247,-7.2247,-7.2338,-7.2339,-7.234]}]]